Regional Weather Roundup
Issued by NWS

Home | Current Version | Previous Version | Graphics & Text | Print | Product List | Glossary On
Versions: 1 2 3 4 5 6 7 8 9 10 11 12 13 14 15 16 17 18 19 20 21 22 23 24 25 26 27 28 29 30 31 32 33 34 35 36 37 38 39 40 41 42 43 44 45 46 47 48 49 50
000
ASUS45 KBOI 260410
RWRID
WEATHER ROUNDUP FOR IDAHO
NATIONAL WEATHER SERVICE BOISE ID
900 PM MST SUN JAN 25 2015

NOTE: "FAIR" INDICATES FEW OR NO CLOUDS BELOW 12000 FEET
WITH NO SIGNIFICANT WEATHER AND/OR OBSTRUCTIONS TO VISIBILITY

IDZ012-014-260500-
SOUTHWEST IDAHO


CITY           SKY/WX    TMP DP  RH WIND       PRES   REMARKS
BOISE          CLEAR     32  29  88 CALM      30.42R
CALDWELL       CLOUDY    34  27  75 CALM      30.45R
MOUNTAIN HOME  CLEAR     31  30  94 W3        30.42R
$$

IDZ016-017-260500-
SOUTHCENTRAL IDAHO


CITY           SKY/WX    TMP DP  RH WIND       PRES   REMARKS
BURLEY         CLEAR     32  29  88 NE14      30.39F WCI  22
JEROME         PTCLDY    32  29  88 NE20      30.39S WCI  20
TWIN FALLS     PTCLDY    36  31  82 E13       30.38S WCI  27
$$

IDZ019>023-260500-
SOUTHEAST IDAHO


CITY           SKY/WX    TMP DP  RH WIND       PRES   REMARKS
IDAHO FALLS    FOG       30  29  96 N7        30.46S VSB 1/2 WCI  23
POCATELLO      FOG       31  31 100 NE7       30.45F VSB 1/2 WCI  24
REXBURG        CLOUDY    32  31  96 NE7       30.44S WCI  26
$$

IDZ006-010-011-018-031-032-260500-
CENTRAL IDAHO MOUNTAINS


CITY           SKY/WX    TMP DP  RH WIND       PRES   REMARKS
MCCALL         CLEAR     29  27  92 CALM      30.36S FOG
HAILEY         CLEAR     30  28  93 NW7       30.41F WCI  23
STANLEY          N/A     27  21  78 S3        30.44R
SALMON         CLEAR     23  19  86 CALM      30.41S
CHALLIS        CLEAR     31  29  92 S5        30.40R WCI  26
$$

IDZ002-004-006-007-026-260500-
NORTHERN IDAHO


CITY           SKY/WX    TMP DP  RH WIND       PRES   REMARKS
LEWISTON       CLEAR     54  38  54 SE8G18    30.17F
LOWELL           N/A     37  35  92 N6        30.32F WCI  32
COEUR D`ALENE  PTCLDY    37  36  93 E7        30.19S WCI  32
MULLAN PASS    CLEAR     41  27  57 S8        30.25F
$$



USA.gov is the U.S. government's official web portal to all federal, state and local government web resources and services.